[TLELIST] Archives

 

[list_settings.list_name] Current TLEs

April 20th 2009 PST

HST 1 20580U 90037B 09108.45647250 +.00000337 +00000-0 +13180-4 0 03832 2 20580 028.4691 132.0358 0003556 029.7603 330.3186 15.00475713840879 ISS (ZARYA) 1 25544U 98067A 09109.87152589 .00011900 00000-0 92366-4 0 7050 2 25544 051.6412 245.8749 0008547 259.2359 239.4074 15.72271617596771 CXO 1 25867U 99040B 09108.29166667 +.00000444 +00000-0 +10000-3 0 03159 2 25867 065.1850 071.2486 7413168 276.2411 354.9845 00.37806900004786 ____________________________________________________________________ These 2-Line ...Continue Reading

[list_settings.list_name] Current TLEs

April 19th 2009 PST

HST 1 20580U 90037B 09109.18813569 .00000328 00000-0 12518-4 0 3699 2 20580 028.4691 127.2639 0003597 037.6213 322.4625 15.00475902840989 ISS (ZARYA) 1 25544U 98067A 09109.14498843 .00011402 00000-0 88772-4 0 7004 2 25544 051.6412 249.5961 0008535 256.7525 086.8111 15.72251720596658 CXO 1 25867U 99040B 09105.66666667 +.00000305 +00000-0 +10000-3 0 03147 2 25867 065.1743 071.3210 7408745 276.2470 357.6455 00.37807065004772 ____________________________________________________________________ These 2-Line ...Continue Reading

[list_settings.list_name] Current TLEs

April 18th 2009 PST

HST 1 20580U 90037B 09107.45875012 .00000383 00000-0 16804-4 0 3680 2 20580 028.4685 138.5452 0003554 018.7299 341.3420 15.00475552840723 ISS (ZARYA) 1 25544U 98067A 09107.25341558 .00010037 00000-0 78873-4 0 6883 2 25544 051.6406 259.2833 0008648 249.5236 180.4745 15.72201988596364 CXO 1 25867U 99040B 09105.66666667 +.00000305 +00000-0 +10000-3 0 03147 2 25867 065.1743 071.3210 7408745 276.2470 357.6455 00.37807065004772 ____________________________________________________________________ These 2-Line ...Continue Reading

[list_settings.list_name] Current TLEs

April 17th 2009 PST

HST 1 20580U 90037B 09105.46330828 +.00000441 +00000-0 +21266-4 0 03694 2 20580 028.4690 151.5765 0003544 000.6279 359.4353 15.00475449840425 ISS (ZARYA) 1 25544U 98067A 09106.49981230 .00010049 00000-0 79015-4 0 6843 2 25544 051.6407 263.1420 0008692 245.9646 235.8437 15.72185824596245 CXO 1 25867U 99040B 09105.66666667 +.00000305 +00000-0 +10000-3 0 03147 2 25867 065.1743 071.3210 7408745 276.2470 357.6455 00.37807065004772 ____________________________________________________________________ These 2-Line ...Continue Reading

[list_settings.list_name] Current TLEs

April 16th 2009 PST

HST 1 20580U 90037B 09106.39451547 .00000409 00000-0 18768-4 0 3674 2 20580 028.4691 145.5036 0003528 011.5702 348.4946 15.00475722840569 ISS (ZARYA) 1 25544U 98067A 09105.80377806 .00010517 00000-0 82514-4 0 6786 2 25544 051.6405 266.7067 0008690 243.0356 256.6803 15.72172774596130 CXO 1 25867U 99040B 09105.66666667 +.00000305 +00000-0 +10000-3 0 03147 2 25867 065.1743 071.3210 7408745 276.2470 357.6455 00.37807065004772 ____________________________________________________________________ These 2-Line ...Continue Reading

[list_settings.list_name] Current TLEs

April 15th 2009 PST

HST 1 20580U 90037B 09104.53210049 .00000381 00000-0 16607-4 0 3666 2 20580 028.4698 157.6554 0003513 350.0623 009.9895 15.00474663840286 ISS (ZARYA) 1 25544U 98067A 09105.03361463 .00010810 00000-0 84738-4 0 6745 2 25544 051.6409 270.6510 0008667 240.6776 217.1430 15.72157162596013 CXO 1 25867U 99040B 09103.04166667 +.00000217 +00000-0 +10000-3 0 03133 2 25867 065.1656 071.3993 7402795 276.2573 000.2945 00.37806536004762 ____________________________________________________________________ These 2-Line ...Continue Reading

[list_settings.list_name] Current TLEs

April 14th 2009 PST

HST 1 20580U 90037B 09101.53893026 +.00000350 +00000-0 +14168-4 0 03661 2 20580 028.4721 177.1932 0003792 314.1685 045.8590 15.00473653839836 ISS (ZARYA) 1 25544U 98067A 09104.08106641 .00010982 00000-0 86085-4 0 6684 2 25544 051.6407 275.5284 0008674 236.5696 226.4625 15.72136261595864 CXO 1 25867U 99040B 09103.04166667 +.00000217 +00000-0 +10000-3 0 03133 2 25867 065.1656 071.3993 7402795 276.2573 000.2945 00.37806536004762 ____________________________________________________________________ These 2-Line ...Continue Reading

[list_settings.list_name] Current TLEs

April 13th 2009 PST

HST 1 20580U 90037B 09101.53893026 +.00000350 +00000-0 +14168-4 0 03661 2 20580 028.4721 177.1932 0003792 314.1685 045.8590 15.00473653839836 ISS (ZARYA) 1 25544U 98067A 09103.06309186 .00010728 00000-0 84283-4 0 6619 2 25544 051.6406 280.7409 0008836 231.2476 226.5279 15.72111702595700 CXO 1 25867U 99040B 09103.04166667 +.00000217 +00000-0 +10000-3 0 03133 2 25867 065.1656 071.3993 7402795 276.2573 000.2945 00.37806536004762 ____________________________________________________________________ These 2-Line ...Continue Reading

[list_settings.list_name] Current TLEs

April 12th 2009 PST

HST 1 20580U 90037B 09100.54120548 .00000472 00000-0 23680-4 0 3645 2 20580 028.4718 183.6986 0003761 304.2718 055.7547 15.00474139839681 ISS (ZARYA) 1 25544U 98067A 09102.11034844 .00011961 00000-0 93500-4 0 6555 2 25544 051.6406 285.6193 0008747 228.3559 233.6853 15.72094567595553 CXO 1 25867U 99040B 09100.37500000 +.00000242 +00000-0 +10000-3 0 03126 2 25867 065.1541 071.4676 7395326 276.2863 357.2493 00.37806317004756 ____________________________________________________________________ These 2-Line ...Continue Reading

[list_settings.list_name] Current TLEs

April 11th 2009 PST

HST 1 20580U 90037B 09100.54120548 .00000472 00000-0 23680-4 0 3645 2 20580 028.4718 183.6986 0003761 304.2718 055.7547 15.00474139839681 ISS (ZARYA) 1 25544U 98067A 09100.57041343 .00013985 00000-0 10864-3 0 6475 2 25544 051.6407 293.5053 0009102 219.9553 161.0190 15.72062132595318 CXO 1 25867U 99040B 09100.37500000 +.00000242 +00000-0 +10000-3 0 03126 2 25867 065.1541 071.4676 7395326 276.2863 357.2493 00.37806317004756 ____________________________________________________________________ These 2-Line ...Continue Reading
  • This mailing list is a public mailing list - anyone may join or leave, at any time.
  • This mailing list is announce-only.

International Space Station (ISS) / Hubble Space Telescope (HST) / Chandra X-Ray Observatory Orbital Data via EMAIL

Privacy Policy:

Private list